SCP
0 0 0 0 0 0 0 0 0 -0 -0 -0 -0 -0 -0 -0 -0 -0 -0 0 0 0 0 -0 -0 -0 0 0 0 0 0 0 0 0 0 0 0 0 0 0 0 0 0 0 0 0 0 0 0 0 0 0 0 0
0 0 0 0 0 0 0 0 0 -0 -0 -0 -0 -0 -0 -0 -0 -0 -0 0 0 0 0 0 0 0 0 0 0 0 0 0 0 0 0 0 -0 0 0 0 0 0 0 0 0 0 0 0 0 0 0 0 0 0
0 0 0 0 0 0 0 0 -0 -0 -0 -0 -0 -0 -0 -0 -0 -0 -0 -0 -0 0 -0 0 0 0 0 0 0 0 0 0 1 1 0 0 0 0 0 0 0 0 0 0 0 0 0 0 0 0 0 0 0 0
0 0 0 0 0 0 0 -0 -0 -0 -0 -0 -0 -0 -0 -0 -0 0 0 0 0 0 -0 0 0 0 0 0 0 0 0 0 0 0 0 0 0 0 0 0 0 0 0 0 0 0 0 0 0 0 0 0 0 0
0 0 0 0 0 0 0 -0 -0 -0 -0 -0 -0 -0 -0 -0 -0 0 0 0 0 0 0 0 0 0 0 0 0 0 0 0 0 0 0 0 0 0 0 0 0 0 0 0 0 0 0 0 0 0 0 0 0 0
0 0 0 0 0 0 0 -0 -0 -0 -0 -0 -0 -0 -0 -0 -0 0 0 0 0 0 0 0 0 0 0 0 0 0 0 0 0 0 0 0 0 0 0 0 0 0 0 0 0 0 0 0 0 0 0 0 0 0
0 0 0 0 0 0 -0 -0 -0 -0 -0 -0 -0 -0 -0 -0 0 0 0 0 0 -0 -0 0 0 0 0 0 0 0 0 -0 -0 0 0 0 0 0 -0 0 0 0 0 0 0 0 0 0 0 0 0 0 0 0
0 0 0 0 0 -0 -0 -0 -0 -0 -0 -0 -0 -0 -0 -0 0 0 0 0 0 -0 -0 -0 0 0 0 -0 0 0 0 0 0 -0 0 -0 0 -0 0 0 0 0 0 0 0 0 0 0 0 0 0 0 0 0
0 0 0 0 0 -0 -0 -0 -0 -0 -0 -0 -0 -0 0 -0 -0 0 0 -0 -0 -0 -0 -0 0 0 0 -0 0 0 0 0 0 0 -0 0 0 0 -0 0 0 0 0 0 0 0 0 0 0 0 0 0 0 0
0 0 0 0 -0 -0 -0 -0 -0 -0 -0 -0 0 -0 0 -0 0 -0 -0 0 0 0 -0 -0 0 0 -0 0 0 0 0 0 0 0 -0 0 0 0 0 -0 0 0 0 0 0 0 0 0 0 0 0 0 0 0
0 0 0 0 -0 -0 -0 -0 -0 -0 -0 0 0 -0 -0 0 0 -0 0 -0 0 0 0 0 0 0 0 0 0 0 0 0 0 0 0 0 0 -0 0 0 0 0 0 0 0 0 0 0 0 0 0 0 0 0
0 0 0 0 -0 -0 -0 -0 -0 -0 0 0 0 -0 -0 -0 0 -0 0 0 -0 0 0 0 0 0 0 0 0 0 0 0 0 0 0 0 0 -0 0 0 0 0 0 0 0 0 0 0 0 0 0 0 0 0
0 0 0 0 0 -0 -0 -0 0 0 -0 0 -0 -0 0 0 -0 0 0 0 0 0 0 0 -0 0 0 0 -0 -0 0 0 0 0 0 0 0 0 0 0 0 0 0 0 0 0 0 0 0 0 0 0 0 0
0 0 0 0 0 0 -0 -0 0 0 0 0 0 0 -0 0 -0 0 0 0 0 0 0 0 -0 -0 0 0 0 0 0 0 0 0 0 0 0 0 0 0 0 0 0 0 0 0 0 0 0 0 0 0 0 0
0 0 0 0 0 0 -0 -0 0 0 0 0 -0 -0 -0 -0 0 0 0 0 0 0 0 0 0 -0 0 0 -0 0 0 0 0 0 0 0 0 0 0 0 0 0 0 0 0 0 0 0 0 0 0 0 0 0
0 0 0 0 -0 -0 -0 -0 0 0 0 -0 -0 -0 0 0 0 0 0 0 0 0 0 0 -0 -0 0 0 0 0 0 0 0 0 0 0 0 0 0 0 0 0 0 0 0 0 0 0 0 0 0 0 0 0
0 0 0 0 -0 -0 0 0 0 0 0 -0 0 0 -0 0 0 0 0 0 0 0 -0 -0 0 0 -0 0 0 0 0 0 0 0 0 0 0 0 0 0 0 0 0 0 0 0 0 0 0 0 -0 0 0 0
0 0 0 0 0 0 0 0 0 0 -0 -0 0 0 0 0 0 0 0 0 0 0 -0 0 -0 -0 0 0 0 0 0 0 0 0 0 0 0 0 0 0 0 0 0 0 0 0 0 0 0 0 0 0 0 0
0 0 -0 0 0 0 0 0 0 0 0 0 0 0 0 0 0 0 0 0 -0 -0 -0 -0 0 0 0 0 0 0 0 0 0 0 0 0 0 0 0 0 0 0 0 0 0 0 0 0 0 0 0 0 0 0
0 0 0 0 -0 0 0 0 0 0 0 0 0 0 0 0 0 0 0 0 -0 -0 0 0 0 0 0 0 0 0 0 0 0 0 0 0 0 0 0 0 0 0 0 0 0 0 0 0 0 0 0 0 0 0
0 0 0 0 -0 0 0 0 0 0 0 0 0 0 0 0 -0 0 0 0 -0 -0 0 0 0 0 0 0 0 0 0 0 0 0 0 0 0 0 0 0 0 0 0 0 0 0 0 0 0 0 0 0 0 0
0 0 0 -0 0 0 0 0 0 0 0 0 0 -0 -0 0 0 0 -0 0 -0 0 0 -0 0 0 0 0 0 0 0 0 0 0 0 0 0 0 0 0 0 0 0 0 0 0 0 0 0 0 0 0 0 0
0 -0 -0 -0 0 0 -0 -0 0 0 0 0 0 0 0 0 0 0 0 0 0 0 0 0 0 0 0 0 0 0 0 0 0 0 0 0 0 0 0 0 0 0 0 0 0 0 0 0 0 0 0 0 0 0
0 -0 0 0 -0 -0 -0 0 0 0 0 -0 0 0 0 0 0 0 0 0 0 0 0 0 -0 0 0 0 0 0 0 0 0 0 0 0 0 0 0 0 0 0 0 0 0 0 0 0 0 0 0 0 0 0
0 0 -0 -0 -0 -0 0 0 0 0 0 0 0 0 0 0 0 0 0 0 0 0 0 0 0 0 0 0 0 0 0 0 0 0 0 0 0 0 0 0 0 0 0 0 0 0 0 0 0 0 0 0 0 0
-0 -0 -0 0 0 0 0 0 0 0 0 0 0 0 0 0 0 0 0 0 0 0 0 0 0 0 0 0 0 0 0 0 0 0 0 0 0 0 0 0 0 0 0 0 0 0 0 0 0 0 0 0 0 0
-0 -0 -0 0 0 0 -0 0 0 0 0 0 0 0 0 0 0 0 0 0 0 0 0 0 0 0 0 0 0 0 0 0 0 0 0 0 0 0 0 0 0 0 0 0 0 0 0 0 0 0 0 0 0 0
0 0 0 0 0 0 0 0 0 0 0 0 0 0 0 0 0 0 0 0 0 0 0 0 0 0 0 0 0 0 0 0 0 0 0 0 0 0 0 0 0 0 0 0 0 0 0 0 0 0 0 0 0 0
0 0 0 0 0 0 0 0 0 0 0 0 0 0 0 0 0 0 0 0 0 0 0 0 0 0 0 0 0 0 0 0 0 0 0 0 0 0 0 0 0 0 0 0 0 0 0 0 0 0 0 0 0 0
0 0 0 0 0 0 0 0 0 0 0 0 0 0 0 0 0 0 0 0 0 0 0 0 0 0 0 0 0 0 0 0 0 0 0 0 0 0 0 0 0 0 0 0 0 0 0 0 0 0 0 0 0 0
0 0 0 0 0 0 0 0 0 0 0 0 0 0 0 0 0 0 0 0 0 0 0 0 0 0 0 0 0 0 0 0 0 0 0 0 0 0 0 0 0 0 0 0 0 0 0 0 0 0 0 0 0 0
0 0 0 0 0 0 0 0 0 0 0 0 0 0 0 0 0 0 0 0 0 0 0 0 0 0 0 0 0 0 0 0 0 0 0 0 0 0 0 0 0 0 0 0 0 0 0 0 0 0 0 0 0 0
0 0 0 0 0 0 0 0 0 0 0 0 0 0 0 0 0 0 0 0 0 0 0 0 0 0 0 0 0 0 0 0 0 0 0 0 0 0 0 0 0 0 0 0 0 0 0 0 0 0 0 0 0 0
Wind_Speed_500mb
9 13 19 26 33 39 44 46 44 43 40 29 13 9 17 16 9 7 9 16 18 21 24 24 26 32 30 24 12 10 4 3 7 2 8 10 15 10 11 20 18 11 12 18 9 15 3 3 10 11 10 5 5 5
10 14 21 28 34 40 46 44 40 41 36 25 10 9 12 11 6 7 9 8 18 12 11 18 26 26 22 19 11 2 7 3 15 5 6 8 25 13 21 20 6 6 20 14 9 8 9 17 17 11 5 5 5 4
11 16 22 29 37 43 45 42 36 38 31 24 12 8 7 5 8 2 6 7 8 6 14 13 20 23 23 21 19 12 9 13 6 9 17 10 19 17 12 12 19 10 4 3 15 13 9 12 9 6 3 6 4 1
11 17 24 34 40 43 45 39 33 34 26 23 15 9 6 1 6 3 12 14 14 22 5 13 8 14 14 14 13 11 8 9 13 13 21 14 18 11 8 12 15 17 5 8 14 18 6 11 7 6 5 3 4 5
14 20 28 34 39 43 43 34 32 30 22 22 17 10 7 5 1 5 11 8 10 11 4 18 10 8 8 10 9 9 10 13 20 17 11 4 10 10 14 12 11 29 9 12 8 10 8 7 8 5 3 3 5 8
17 23 30 36 40 44 40 29 29 26 23 22 14 9 8 6 8 2 9 1 5 15 16 6 13 5 2 7 5 4 8 9 6 7 4 3 3 4 10 10 17 14 14 18 15 11 8 6 1 4 3 6 9 8
18 24 31 38 41 43 36 26 27 23 25 16 7 4 10 7 3 6 7 4 2 11 12 6 17 11 2 7 10 9 1 5 12 4 5 5 10 4 10 15 15 14 15 10 5 3 2 2 2 2 2 4 8 8
20 26 33 38 42 39 32 24 25 26 21 5 2 3 11 8 6 1 1 6 4 13 12 5 7 12 6 16 10 5 7 7 4 5 7 11 14 17 8 27 13 10 9 6 4 3 11 2 2 1 3 8 11 15
22 29 35 38 40 35 28 24 23 20 6 2 7 13 14 11 11 4 8 6 6 4 15 8 2 7 9 16 9 7 7 4 9 5 13 11 7 7 26 12 4 1 6 6 2 4 6 4 8 4 8 13 17 19
25 31 36 39 35 34 25 25 22 12 5 8 10 7 10 5 9 14 10 8 12 7 5 9 11 11 14 11 3 8 11 5 10 8 24 8 3 27 27 17 10 3 5 9 12 12 12 11 11 11 15 16 14 19
27 33 37 37 31 29 23 23 19 8 7 8 8 11 8 13 8 10 4 8 2 2 6 12 18 5 10 15 13 17 10 4 6 4 4 5 4 8 9 9 8 7 9 9 9 12 9 10 16 17 15 12 16 20
29 34 36 29 31 25 18 20 14 11 11 9 7 14 8 8 4 5 4 3 6 8 9 7 5 11 4 9 9 7 4 3 3 4 5 6 11 58 23 14 7 7 9 11 11 12 14 14 15 17 14 17 21 22
31 35 31 26 28 22 12 17 16 9 6 8 3 1 9 4 5 7 10 4 4 2 9 14 10 9 3 3 8 7 2 0 3 9 7 3 10 23 19 17 18 8 9 11 15 15 16 19 19 20 21 21 23 24
31 32 22 27 25 17 6 12 10 3 2 5 5 7 6 6 3 8 17 16 12 11 13 16 20 9 5 7 6 7 3 5 5 7 2 1 11 21 22 24 22 21 21 22 18 19 22 22 23 25 15 17 24 27
30 22 20 26 25 15 4 5 9 8 7 4 1 3 3 6 8 8 3 7 10 12 14 15 15 18 5 7 5 10 5 10 9 7 3 0 16 21 23 25 24 24 26 28 29 30 29 27 33 23 25 30 27 26
24 16 33 30 21 12 6 5 11 5 2 1 4 4 5 12 10 5 11 11 16 11 6 9 8 6 4 7 8 4 8 11 11 5 21 18 21 22 22 23 24 25 26 28 27 29 30 33 31 30 30 28 27 30
13 25 30 26 15 9 11 6 1 2 2 4 5 6 9 7 8 9 11 14 12 19 9 7 7 1 10 4 6 9 9 5 15 21 23 18 18 18 20 23 30 34 35 36 32 30 37 42 33 34 37 39 31 33
24 25 26 25 15 10 10 6 3 2 2 1 2 10 6 6 7 7 9 10 14 15 15 9 8 1 5 7 5 8 16 18 15 17 17 8 12 17 19 30 39 40 33 35 40 45 41 32 42 31 29 39 38 39
28 25 23 23 17 6 5 4 4 2 7 3 3 3 3 3 3 1 4 5 4 6 10 9 3 5 13 22 20 18 14 13 17 20 16 13 14 17 30 32 31 31 43 35 37 29 24 33 35 42 28 38 42 37
21 18 18 16 11 4 3 4 4 6 3 7 3 1 5 6 6 3 3 3 5 11 6 4 10 19 21 16 10 11 15 16 19 27 31 33 33 36 37 30 37 41 37 31 34 27 26 33 25 24 20 31 35 50
15 18 13 12 7 7 7 6 1 7 6 6 7 6 2 2 6 3 5 4 13 4 10 9 12 19 8 1 7 8 18 16 27 29 35 35 32 35 33 33 32 33 35 32 34 36 33 35 23 29 34 38 40 47
16 14 10 7 5 6 5 3 8 3 7 6 4 4 4 4 4 7 10 12 6 15 12 18 16 8 10 6 7 16 22 26 29 33 30 36 41 34 36 36 34 36 34 34 30 38 40 31 42 43 35 58 38 48
12 7 8 4 3 3 5 3 5 2 5 3 3 3 3 2 4 7 10 2 2 9 8 11 12 12 16 18 21 24 29 31 27 32 38 37 38 39 40 36 31 33 30 34 40 40 40 42 43 50 47 49 55 51
8 3 6 5 5 5 2 3 3 4 4 6 3 4 4 8 13 9 7 6 10 5 8 6 11 18 28 23 28 35 38 33 36 38 36 37 41 38 37 39 33 27 30 30 32 38 42 45 47 50 52 55 55 57
6 2 7 7 8 6 4 1 2 3 3 5 4 4 4 5 6 7 9 4 8 6 8 12 19 28 37 40 39 38 39 32 34 35 35 40 42 28 30 33 29 32 40 44 49 49 49 49 47 47 45 47 55 63
3 4 5 3 3 4 3 3 1 4 5 5 3 3 7 6 6 7 8 23 18 20 17 19 27 37 38 32 33 33 32 32 33 30 33 31 22 23 26 30 33 38 43 47 45 39 37 43 50 54 57 52 49 50
5 2 5 4 4 4 10 2 4 7 3 3 7 9 6 5 6 9 15 23 22 21 23 29 31 29 24 27 20 23 26 26 25 23 26 20 23 22 25 31 34 38 46 36 43 50 47 43 45 48 48 49 51 51
6 7 8 2 7 3 7 9 4 3 4 3 7 6 6 9 8 22 14 10 15 22 27 23 20 19 18 10 9 14 19 21 20 23 27 22 20 29 36 38 30 39 37 35 39 40 41 43 50 55 55 61 61 58
10 4 7 12 6 7 6 5 6 5 8 9 13 18 24 23 28 16 16 17 18 18 15 13 15 13 17 20 17 22 23 22 30 37 39 35 37 39 41 40 38 38 36 39 41 44 48 54 57 62 65 58 55 61
6 4 10 7 6 6 2 5 14 19 20 24 27 29 28 25 4 6 8 12 11 9 8 7 10 16 17 20 22 25 30 31 30 30 36 40 42 42 40 39 40 42 45 48 53 57 60 62 64 62 62 61 59 61
5 8 10 13 11 13 14 17 23 28 29 29 28 31 32 14 7 15 16 14 10 8 8 12 15 16 18 22 24 26 29 34 38 35 30 37 36 38 39 42 43 47 49 52 56 60 60 62 61 58 59 60 60 62
9 10 11 16 19 22 27 25 26 31 38 38 33 29 27 24 10 17 21 15 12 9 9 10 13 15 19 19 21 25 33 33 31 38 35 38 37 39 52 64 55 57 59 59 58 57 56 55 60 55 52 59 63 59
11 16 20 23 21 15 27 32 32 33 32 31 29 21 11 11 14 9 9 11 8 10 7 5 9 19 22 20 28 32 28 36 39 43 45 50 54 61 69 65 65 56 53 53 52 51 53 54 54 57 60 61 61 61
Wind_Direction_500mb
288 313 324 333 337 341 344 345 343 347 345 340 322 327 350 351 343 345 340 344 18 42 51 45 35 29 19 13 64 101 229 130 196 290 309 349 320 340 310 332 309 325 345 300 342 341 42 324 285 357 95 116 33 62
293 311 328 330 335 341 345 343 343 347 347 344 323 314 1 20 44 49 22 358 8 353 101 71 52 41 38 25 3 32 14 318 15 321 351 141 272 348 342 307 73 357 1 331 9 14 105 48 76 76 58 71 93 47
293 315 322 327 338 343 342 342 344 346 348 344 323 291 346 43 42 129 77 350 301 150 139 65 31 29 29 23 28 347 41 2 22 352 317 312 295 285 294 359 344 107 149 354 289 128 122 112 106 97 54 91 108 46
303 310 321 334 340 340 341 341 341 345 347 343 329 275 289 205 48 110 42 329 331 306 262 86 77 42 31 29 22 18 353 322 304 273 267 277 289 29 342 344 305 343 171 25 341 83 82 184 183 170 166 178 278 280
305 317 329 336 337 339 339 340 341 343 338 343 336 280 253 219 149 123 56 348 353 349 36 133 124 78 29 10 356 1 357 330 291 252 256 295 13 0 318 281 40 351 349 353 7 16 293 54 190 187 238 266 33 19
309 324 331 333 336 338 339 338 341 339 332 338 329 291 228 212 202 74 193 293 348 351 303 159 119 147 338 349 4 344 336 326 323 310 333 102 55 275 284 107 94 75 62 38 18 356 27 0 155 126 329 60 61 18
313 324 329 333 336 338 339 338 342 335 331 335 322 292 201 174 181 310 6 163 121 312 264 240 146 159 195 245 224 201 212 352 308 14 247 320 156 222 284 68 78 73 70 52 42 23 18 110 246 160 295 30 3 328
316 323 330 334 337 338 341 342 343 338 333 338 318 107 162 144 124 108 175 141 339 293 261 260 106 94 304 277 136 301 233 200 233 284 219 245 103 15 67 306 48 71 85 64 44 13 347 262 203 175 342 315 310 315
319 328 333 335 338 341 344 349 347 348 20 39 126 123 146 186 254 125 177 135 341 281 308 290 22 184 177 310 299 182 292 132 285 54 306 62 19 354 292 283 77 90 26 5 347 320 333 326 293 233 295 295 311 326
324 330 333 336 341 346 351 356 358 14 26 160 177 210 187 71 115 151 192 224 215 182 254 302 44 20 332 15 83 281 257 165 207 54 330 85 152 218 267 307 9 46 8 355 339 333 317 297 275 274 286 288 318 333
328 331 335 340 344 349 355 359 4 51 22 291 295 52 63 142 184 230 197 284 100 186 2 41 7 309 333 344 334 10 331 312 18 39 324 105 98 318 19 39 28 29 15 10 348 329 326 293 296 304 292 306 320 318
330 333 338 341 347 350 356 5 10 30 40 57 91 128 155 234 4 307 337 124 272 38 58 352 340 332 317 330 250 239 220 298 296 180 222 69 347 322 17 14 3 1 330 324 328 324 312 300 290 295 305 308 304 302
331 335 338 343 347 345 349 14 25 29 58 113 324 313 25 122 28 232 185 214 176 85 47 339 319 263 175 317 292 273 202 105 51 336 63 140 212 316 359 346 335 309 308 310 311 306 293 294 287 282 278 285 297 295
335 336 341 347 344 346 334 18 17 54 92 300 100 351 251 177 32 20 21 38 40 335 343 316 302 295 264 269 255 291 14 279 350 49 61 202 9 31 1 351 347 336 332 319 305 298 292 289 289 290 283 278 281 293
343 339 351 354 355 350 323 36 38 103 334 30 9 254 64 38 48 38 0 317 61 344 317 317 276 246 253 241 309 34 356 46 55 315 212 85 28 25 6 354 348 342 337 333 326 324 319 318 304 300 292 282 273 288
357 4 353 353 352 4 32 129 75 54 348 314 268 207 143 246 127 61 17 17 6 313 254 237 260 307 343 329 45 281 349 43 8 275 105 52 33 19 357 347 340 331 323 318 319 316 313 305 302 296 292 273 284 289
12 350 349 357 9 47 94 66 69 29 316 240 94 29 343 45 18 33 12 9 336 290 290 293 23 11 289 45 169 357 39 31 8 22 65 55 23 354 335 334 331 324 323 328 329 331 318 310 297 307 308 290 275 281
353 354 356 4 21 73 40 5 323 280 164 299 316 59 42 6 342 75 18 12 340 348 319 9 334 73 258 102 13 69 30 14 34 7 334 347 327 312 325 340 334 328 335 334 322 313 305 299 312 315 304 300 276 300
349 352 1 5 25 63 355 30 328 292 44 53 118 98 21 81 107 96 342 31 348 331 298 274 237 20 50 44 11 24 35 6 345 328 338 352 10 14 346 332 324 335 329 316 318 339 327 321 316 328 319 296 284 317
342 349 358 10 26 350 342 50 332 314 271 53 248 344 348 16 21 316 289 323 287 249 223 263 52 59 47 38 5 8 337 323 337 329 326 323 340 340 329 331 325 314 312 329 337 346 351 334 333 335 327 325 316 290
6 340 355 28 12 344 330 311 31 336 333 286 31 295 22 268 252 4 336 345 239 287 36 4 90 102 91 203 326 330 313 331 321 309 317 326 312 314 315 331 323 330 325 329 328 327 329 331 334 323 321 320 320 313
332 354 23 4 338 342 282 327 324 359 266 3 254 263 283 359 352 37 307 234 271 58 25 346 17 13 350 137 293 289 310 313 303 308 295 306 312 324 327 323 319 319 324 335 353 350 356 344 339 348 346 315 328 328
355 6 8 333 304 320 276 269 270 261 298 13 256 268 226 330 46 330 259 267 340 78 23 353 353 317 274 292 302 316 300 291 285 286 296 331 331 327 326 326 1 356 342 342 348 347 348 348 343 342 330 327 336 339
1 11 320 302 249 277 255 239 263 270 285 257 337 307 355 9 334 262 269 310 99 33 123 24 296 331 355 334 320 333 344 337 324 322 335 335 331 340 348 357 6 352 350 2 357 352 352 351 347 344 340 341 342 342
334 330 263 247 258 244 242 181 268 269 326 0 315 290 12 9 294 305 299 267 98 22 22 16 357 350 336 324 326 331 347 348 347 343 337 340 346 338 338 349 4 9 350 8 355 344 339 335 332 328 326 330 330 328
354 197 236 306 234 301 356 285 261 300 325 313 266 296 308 312 304 266 13 50 44 45 17 2 345 331 320 322 335 346 356 356 349 342 338 345 8 17 8 3 356 349 332 345 336 332 334 332 328 328 324 328 331 332
269 220 203 248 296 269 266 218 319 287 268 286 349 347 289 284 289 66 53 34 24 16 357 340 332 325 326 324 336 351 353 4 8 0 359 3 20 18 13 358 347 328 326 331 324 327 331 330 330 330 330 330 329 327
293 302 297 7 311 318 300 305 281 271 286 47 295 301 304 326 332 7 26 20 353 346 342 343 343 343 333 337 12 360 3 3 2 355 346 349 351 334 314 317 322 321 332 328 327 325 326 324 323 322 320 319 318 319
258 262 292 282 278 262 242 263 287 331 2 317 301 307 306 305 324 332 337 343 343 341 343 348 356 12 59 43 31 11 355 344 345 342 344 339 336 336 336 334 332 331 330 325 322 323 322 321 321 321 321 323 322 324
239 265 289 285 275 270 328 334 305 308 306 302 299 295 291 294 59 43 21 6 1 16 20 57 36 23 6 357 351 348 345 343 334 337 331 329 322 324 323 324 324 326 325 323 322 321 320 321 322 321 320 323 324 323
285 278 269 273 277 288 304 312 303 297 296 293 291 288 286 279 122 74 55 68 84 77 61 43 49 43 17 357 347 337 339 334 334 338 330 327 320 315 314 318 317 320 315 315 316 316 316 317 318 319 319 320 322 322
274 277 289 295 297 307 310 301 301 307 307 302 294 286 276 260 202 87 35 42 65 64 72 45 17 19 359 348 342 337 325 329 324 318 323 313 307 310 312 316 316 315 317 315 315 314 316 317 317 318 318 320 320 319
259 276 285 284 288 294 318 319 311 305 300 294 294 294 288 56 76 94 63 58 72 74 76 55 356 341 326 311 309 315 316 318 313 306 302 305 313 317 314 310 314 315 315 316 317 317 316 316 318 319 319 319 319 318
Wind_Speed_850mb
9 13 19 26 33 39 44 46 44 43 40 29 13 9 17 16 9 7 9 16 18 21 24 24 26 32 30 24 12 10 4 3 7 2 8 10 15 10 11 20 18 11 12 18 9 15 3 3 10 11 10 5 5 5
10 14 21 28 34 40 46 44 40 41 36 25 10 9 12 11 6 7 9 8 18 12 11 18 26 26 22 19 11 2 7 3 15 5 6 8 25 13 21 20 6 6 20 14 9 8 9 17 17 11 5 5 5 4
11 16 22 29 37 43 45 42 36 38 31 24 12 8 7 5 8 2 6 7 8 6 14 13 20 23 23 21 19 12 9 13 6 9 17 10 19 17 12 12 19 10 4 3 15 13 9 12 9 6 3 6 4 1
11 17 24 34 40 43 45 39 33 34 26 23 15 9 6 1 6 3 12 14 14 22 5 13 8 14 14 14 13 11 8 9 13 13 21 14 18 11 8 12 15 17 5 8 14 18 6 11 7 6 5 3 4 5
14 20 28 34 39 43 43 34 32 30 22 22 17 10 7 5 1 5 11 8 10 11 4 18 10 8 8 10 9 9 10 13 20 17 11 4 10 10 14 12 11 29 9 12 8 10 8 7 8 5 3 3 5 8
17 23 30 36 40 44 40 29 29 26 23 22 14 9 8 6 8 2 9 1 5 15 16 6 13 5 2 7 5 4 8 9 6 7 4 3 3 4 10 10 17 14 14 18 15 11 8 6 1 4 3 6 9 8
18 24 31 38 41 43 36 26 27 23 25 16 7 4 10 7 3 6 7 4 2 11 12 6 17 11 2 7 10 9 1 5 12 4 5 5 10 4 10 15 15 14 15 10 5 3 2 2 2 2 2 4 8 8
20 26 33 38 42 39 32 24 25 26 21 5 2 3 11 8 6 1 1 6 4 13 12 5 7 12 6 16 10 5 7 7 4 5 7 11 14 17 8 27 13 10 9 6 4 3 11 2 2 1 3 8 11 15
22 29 35 38 40 35 28 24 23 20 6 2 7 13 14 11 11 4 8 6 6 4 15 8 2 7 9 16 9 7 7 4 9 5 13 11 7 7 26 12 4 1 6 6 2 4 6 4 8 4 8 13 17 19
25 31 36 39 35 34 25 25 22 12 5 8 10 7 10 5 9 14 10 8 12 7 5 9 11 11 14 11 3 8 11 5 10 8 24 8 3 27 27 17 10 3 5 9 12 12 12 11 11 11 15 16 14 19
27 33 37 37 31 29 23 23 19 8 7 8 8 11 8 13 8 10 4 8 2 2 6 12 18 5 10 15 13 17 10 4 6 4 4 5 4 8 9 9 8 7 9 9 9 12 9 10 16 17 15 12 16 20
29 34 36 29 31 25 18 20 14 11 11 9 7 14 8 8 4 5 4 3 6 8 9 7 5 11 4 9 9 7 4 3 3 4 5 6 11 58 23 14 7 7 9 11 11 12 14 14 15 17 14 17 21 22
31 35 31 26 28 22 12 17 16 9 6 8 3 1 9 4 5 7 10 4 4 2 9 14 10 9 3 3 8 7 2 0 3 9 7 3 10 23 19 17 18 8 9 11 15 15 16 19 19 20 21 21 23 24
31 32 22 27 25 17 6 12 10 3 2 5 5 7 6 6 3 8 17 16 12 11 13 16 20 9 5 7 6 7 3 5 5 7 2 1 11 21 22 24 22 21 21 22 18 19 22 22 23 25 15 17 24 27
30 22 20 26 25 15 4 5 9 8 7 4 1 3 3 6 8 8 3 7 10 12 14 15 15 18 5 7 5 10 5 10 9 7 3 0 16 21 23 25 24 24 26 28 29 30 29 27 33 23 25 30 27 26
24 16 33 30 21 12 6 5 11 5 2 1 4 4 5 12 10 5 11 11 16 11 6 9 8 6 4 7 8 4 8 11 11 5 21 18 21 22 22 23 24 25 26 28 27 29 30 33 31 30 30 28 27 30
13 25 30 26 15 9 11 6 1 2 2 4 5 6 9 7 8 9 11 14 12 19 9 7 7 1 10 4 6 9 9 5 15 21 23 18 18 18 20 23 30 34 35 36 32 30 37 42 33 34 37 39 31 33
24 25 26 25 15 10 10 6 3 2 2 1 2 10 6 6 7 7 9 10 14 15 15 9 8 1 5 7 5 8 16 18 15 17 17 8 12 17 19 30 39 40 33 35 40 45 41 32 42 31 29 39 38 39
28 25 23 23 17 6 5 4 4 2 7 3 3 3 3 3 3 1 4 5 4 6 10 9 3 5 13 22 20 18 14 13 17 20 16 13 14 17 30 32 31 31 43 35 37 29 24 33 35 42 28 38 42 37
21 18 18 16 11 4 3 4 4 6 3 7 3 1 5 6 6 3 3 3 5 11 6 4 10 19 21 16 10 11 15 16 19 27 31 33 33 36 37 30 37 41 37 31 34 27 26 33 25 24 20 31 35 50
15 18 13 12 7 7 7 6 1 7 6 6 7 6 2 2 6 3 5 4 13 4 10 9 12 19 8 1 7 8 18 16 27 29 35 35 32 35 33 33 32 33 35 32 34 36 33 35 23 29 34 38 40 47
16 14 10 7 5 6 5 3 8 3 7 6 4 4 4 4 4 7 10 12 6 15 12 18 16 8 10 6 7 16 22 26 29 33 30 36 41 34 36 36 34 36 34 34 30 38 40 31 42 43 35 58 38 48
12 7 8 4 3 3 5 3 5 2 5 3 3 3 3 2 4 7 10 2 2 9 8 11 12 12 16 18 21 24 29 31 27 32 38 37 38 39 40 36 31 33 30 34 40 40 40 42 43 50 47 49 55 51
8 3 6 5 5 5 2 3 3 4 4 6 3 4 4 8 13 9 7 6 10 5 8 6 11 18 28 23 28 35 38 33 36 38 36 37 41 38 37 39 33 27 30 30 32 38 42 45 47 50 52 55 55 57
6 2 7 7 8 6 4 1 2 3 3 5 4 4 4 5 6 7 9 4 8 6 8 12 19 28 37 40 39 38 39 32 34 35 35 40 42 28 30 33 29 32 40 44 49 49 49 49 47 47 45 47 55 63
3 4 5 3 3 4 3 3 1 4 5 5 3 3 7 6 6 7 8 23 18 20 17 19 27 37 38 32 33 33 32 32 33 30 33 31 22 23 26 30 33 38 43 47 45 39 37 43 50 54 57 52 49 50
5 2 5 4 4 4 10 2 4 7 3 3 7 9 6 5 6 9 15 23 22 21 23 29 31 29 24 27 20 23 26 26 25 23 26 20 23 22 25 31 34 38 46 36 43 50 47 43 45 48 48 49 51 51
6 7 8 2 7 3 7 9 4 3 4 3 7 6 6 9 8 22 14 10 15 22 27 23 20 19 18 10 9 14 19 21 20 23 27 22 20 29 36 38 30 39 37 35 39 40 41 43 50 55 55 61 61 58
10 4 7 12 6 7 6 5 6 5 8 9 13 18 24 23 28 16 16 17 18 18 15 13 15 13 17 20 17 22 23 22 30 37 39 35 37 39 41 40 38 38 36 39 41 44 48 54 57 62 65 58 55 61
6 4 10 7 6 6 2 5 14 19 20 24 27 29 28 25 4 6 8 12 11 9 8 7 10 16 17 20 22 25 30 31 30 30 36 40 42 42 40 39 40 42 45 48 53 57 60 62 64 62 62 61 59 61
5 8 10 13 11 13 14 17 23 28 29 29 28 31 32 14 7 15 16 14 10 8 8 12 15 16 18 22 24 26 29 34 38 35 30 37 36 38 39 42 43 47 49 52 56 60 60 62 61 58 59 60 60 62
9 10 11 16 19 22 27 25 26 31 38 38 33 29 27 24 10 17 21 15 12 9 9 10 13 15 19 19 21 25 33 33 31 38 35 38 37 39 52 64 55 57 59 59 58 57 56 55 60 55 52 59 63 59
11 16 20 23 21 15 27 32 32 33 32 31 29 21 11 11 14 9 9 11 8 10 7 5 9 19 22 20 28 32 28 36 39 43 45 50 54 61 69 65 65 56 53 53 52 51 53 54 54 57 60 61 61 61
Wind_Direction_850mb
288 313 324 333 337 341 344 345 343 347 345 340 322 327 350 351 343 345 340 344 18 42 51 45 35 29 19 13 64 101 229 130 196 290 309 349 320 340 310 332 309 325 345 300 342 341 42 324 285 357 95 116 33 62
293 311 328 330 335 341 345 343 343 347 347 344 323 314 1 20 44 49 22 358 8 353 101 71 52 41 38 25 3 32 14 318 15 321 351 141 272 348 342 307 73 357 1 331 9 14 105 48 76 76 58 71 93 47
293 315 322 327 338 343 342 342 344 346 348 344 323 291 346 43 42 129 77 350 301 150 139 65 31 29 29 23 28 347 41 2 22 352 317 312 295 285 294 359 344 107 149 354 289 128 122 112 106 97 54 91 108 46
303 310 321 334 340 340 341 341 341 345 347 343 329 275 289 205 48 110 42 329 331 306 262 86 77 42 31 29 22 18 353 322 304 273 267 277 289 29 342 344 305 343 171 25 341 83 82 184 183 170 166 178 278 280
305 317 329 336 337 339 339 340 341 343 338 343 336 280 253 219 149 123 56 348 353 349 36 133 124 78 29 10 356 1 357 330 291 252 256 295 13 0 318 281 40 351 349 353 7 16 293 54 190 187 238 266 33 19
309 324 331 333 336 338 339 338 341 339 332 338 329 291 228 212 202 74 193 293 348 351 303 159 119 147 338 349 4 344 336 326 323 310 333 102 55 275 284 107 94 75 62 38 18 356 27 0 155 126 329 60 61 18
313 324 329 333 336 338 339 338 342 335 331 335 322 292 201 174 181 310 6 163 121 312 264 240 146 159 195 245 224 201 212 352 308 14 247 320 156 222 284 68 78 73 70 52 42 23 18 110 246 160 295 30 3 328
316 323 330 334 337 338 341 342 343 338 333 338 318 107 162 144 124 108 175 141 339 293 261 260 106 94 304 277 136 301 233 200 233 284 219 245 103 15 67 306 48 71 85 64 44 13 347 262 203 175 342 315 310 315
319 328 333 335 338 341 344 349 347 348 20 39 126 123 146 186 254 125 177 135 341 281 308 290 22 184 177 310 299 182 292 132 285 54 306 62 19 354 292 283 77 90 26 5 347 320 333 326 293 233 295 295 311 326
324 330 333 336 341 346 351 356 358 14 26 160 177 210 187 71 115 151 192 224 215 182 254 302 44 20 332 15 83 281 257 165 207 54 330 85 152 218 267 307 9 46 8 355 339 333 317 297 275 274 286 288 318 333
328 331 335 340 344 349 355 359 4 51 22 291 295 52 63 142 184 230 197 284 100 186 2 41 7 309 333 344 334 10 331 312 18 39 324 105 98 318 19 39 28 29 15 10 348 329 326 293 296 304 292 306 320 318
330 333 338 341 347 350 356 5 10 30 40 57 91 128 155 234 4 307 337 124 272 38 58 352 340 332 317 330 250 239 220 298 296 180 222 69 347 322 17 14 3 1 330 324 328 324 312 300 290 295 305 308 304 302
331 335 338 343 347 345 349 14 25 29 58 113 324 313 25 122 28 232 185 214 176 85 47 339 319 263 175 317 292 273 202 105 51 336 63 140 212 316 359 346 335 309 308 310 311 306 293 294 287 282 278 285 297 295
335 336 341 347 344 346 334 18 17 54 92 300 100 351 251 177 32 20 21 38 40 335 343 316 302 295 264 269 255 291 14 279 350 49 61 202 9 31 1 351 347 336 332 319 305 298 292 289 289 290 283 278 281 293
343 339 351 354 355 350 323 36 38 103 334 30 9 254 64 38 48 38 0 317 61 344 317 317 276 246 253 241 309 34 356 46 55 315 212 85 28 25 6 354 348 342 337 333 326 324 319 318 304 300 292 282 273 288
357 4 353 353 352 4 32 129 75 54 348 314 268 207 143 246 127 61 17 17 6 313 254 237 260 307 343 329 45 281 349 43 8 275 105 52 33 19 357 347 340 331 323 318 319 316 313 305 302 296 292 273 284 289
12 350 349 357 9 47 94 66 69 29 316 240 94 29 343 45 18 33 12 9 336 290 290 293 23 11 289 45 169 357 39 31 8 22 65 55 23 354 335 334 331 324 323 328 329 331 318 310 297 307 308 290 275 281
353 354 356 4 21 73 40 5 323 280 164 299 316 59 42 6 342 75 18 12 340 348 319 9 334 73 258 102 13 69 30 14 34 7 334 347 327 312 325 340 334 328 335 334 322 313 305 299 312 315 304 300 276 300
349 352 1 5 25 63 355 30 328 292 44 53 118 98 21 81 107 96 342 31 348 331 298 274 237 20 50 44 11 24 35 6 345 328 338 352 10 14 346 332 324 335 329 316 318 339 327 321 316 328 319 296 284 317
342 349 358 10 26 350 342 50 332 314 271 53 248 344 348 16 21 316 289 323 287 249 223 263 52 59 47 38 5 8 337 323 337 329 326 323 340 340 329 331 325 314 312 329 337 346 351 334 333 335 327 325 316 290
6 340 355 28 12 344 330 311 31 336 333 286 31 295 22 268 252 4 336 345 239 287 36 4 90 102 91 203 326 330 313 331 321 309 317 326 312 314 315 331 323 330 325 329 328 327 329 331 334 323 321 320 320 313
332 354 23 4 338 342 282 327 324 359 266 3 254 263 283 359 352 37 307 234 271 58 25 346 17 13 350 137 293 289 310 313 303 308 295 306 312 324 327 323 319 319 324 335 353 350 356 344 339 348 346 315 328 328
355 6 8 333 304 320 276 269 270 261 298 13 256 268 226 330 46 330 259 267 340 78 23 353 353 317 274 292 302 316 300 291 285 286 296 331 331 327 326 326 1 356 342 342 348 347 348 348 343 342 330 327 336 339
1 11 320 302 249 277 255 239 263 270 285 257 337 307 355 9 334 262 269 310 99 33 123 24 296 331 355 334 320 333 344 337 324 322 335 335 331 340 348 357 6 352 350 2 357 352 352 351 347 344 340 341 342 342
334 330 263 247 258 244 242 181 268 269 326 0 315 290 12 9 294 305 299 267 98 22 22 16 357 350 336 324 326 331 347 348 347 343 337 340 346 338 338 349 4 9 350 8 355 344 339 335 332 328 326 330 330 328
354 197 236 306 234 301 356 285 261 300 325 313 266 296 308 312 304 266 13 50 44 45 17 2 345 331 320 322 335 346 356 356 349 342 338 345 8 17 8 3 356 349 332 345 336 332 334 332 328 328 324 328 331 332
269 220 203 248 296 269 266 218 319 287 268 286 349 347 289 284 289 66 53 34 24 16 357 340 332 325 326 324 336 351 353 4 8 0 359 3 20 18 13 358 347 328 326 331 324 327 331 330 330 330 330 330 329 327
293 302 297 7 311 318 300 305 281 271 286 47 295 301 304 326 332 7 26 20 353 346 342 343 343 343 333 337 12 360 3 3 2 355 346 349 351 334 314 317 322 321 332 328 327 325 326 324 323 322 320 319 318 319
258 262 292 282 278 262 242 263 287 331 2 317 301 307 306 305 324 332 337 343 343 341 343 348 356 12 59 43 31 11 355 344 345 342 344 339 336 336 336 334 332 331 330 325 322 323 322 321 321 321 321 323 322 324
239 265 289 285 275 270 328 334 305 308 306 302 299 295 291 294 59 43 21 6 1 16 20 57 36 23 6 357 351 348 345 343 334 337 331 329 322 324 323 324 324 326 325 323 322 321 320 321 322 321 320 323 324 323
285 278 269 273 277 288 304 312 303 297 296 293 291 288 286 279 122 74 55 68 84 77 61 43 49 43 17 357 347 337 339 334 334 338 330 327 320 315 314 318 317 320 315 315 316 316 316 317 318 319 319 320 322 322
274 277 289 295 297 307 310 301 301 307 307 302 294 286 276 260 202 87 35 42 65 64 72 45 17 19 359 348 342 337 325 329 324 318 323 313 307 310 312 316 316 315 317 315 315 314 316 317 317 318 318 320 320 319
259 276 285 284 288 294 318 319 311 305 300 294 294 294 288 56 76 94 63 58 72 74 76 55 356 341 326 311 309 315 316 318 313 306 302 305 313 317 314 310 314 315 315 316 317 317 316 316 318 319 319 319 319 318